CW7858 Weather Reports


Display with metric or nautical units.
time (UTC)temp
F
wind
direction
speed
MPH
gust
MPH
rain 1hr
in
rain 24hr
in
rain mn
in
humidity
%
barometer
mb
20180925230244 75 17 4.0 8.0 0.00 0.00 0.00 80 1021.3
20180925225303 75 75 5.0 10.0 0.00 0.00 0.00 80 1021.3
20180925224300 75 119 4.0 10.0 0.00 0.00 0.00 80 1021.2
20180925223248 75 71 5.0 10.0 0.00 0.00 0.00 81 1021.2
20180925222241 75 100 3.0 8.0 0.00 0.00 0.00 82 1021.2
20180925221238 75 89 3.0 10.0 0.00 0.00 0.00 83 1021.1
20180925220247 75 55 3.0 8.0 0.00 0.00 0.00 83 1021.1
20180925215247 75 55 5.0 7.0 0.00 0.00 0.00 83 1021.1
20180925214243 75 99 3.0 8.0 0.00 0.00 0.00 83 1021.0
20180925213239 75 69 3.0 10.0 0.00 0.00 0.00 82 1021.0
20180925212248 75 66 4.0 12.0 0.00 0.00 0.00 82 1020.9
20180925211241 75 68 8.0 14.0 0.00 0.00 0.00 80 1020.8
20180925210241 76 52 7.0 11.0 0.00 0.00 0.00 79 1020.8
20180925205238 76 83 4.0 13.0 0.00 0.00 0.00 77 1020.7
20180925204236 77 45 4.0 10.0 0.00 0.00 0.00 76 1020.6
20180925203252 77 66 3.0 11.0 0.00 0.00 0.00 74 1020.6
20180925202254 77 66 6.0 12.0 0.00 0.00 0.00 73 1020.3
20180925201252 77 82 5.0 12.0 0.00 0.00 0.00 73 1020.2
20180925200248 77 83 6.0 11.0 0.00 0.00 0.00 73 1020.2
20180925195244 77 61 5.0 12.0 0.00 0.00 0.00 74 1020.0
20180925194240 77 97 7.0 12.0 0.00 0.00 0.00 74 1019.7
20180925193236 77 64 3.0 12.0 0.00 0.00 0.00 74 1019.7
20180925192243 77 137 8.0 16.0 0.00 0.00 0.00 73 1019.7
20180925191240 77 68 3.0 13.0 0.00 0.00 0.00 72 1019.4
20180925190239 77 62 7.0 14.0 0.00 0.00 0.00 72 1019.4
20180925185303 77 93 5.0 14.0 0.00 0.00 0.00 72 1019.2
20180925184254 78 61 7.0 18.0 0.00 0.00 0.00 72 1019.2
20180925183251 78 68 2.0 12.0 0.00 0.00 0.00 72 1019.2
20180925182250 78 56 7.0 17.0 0.00 0.00 0.00 71 1018.9
20180925181250 78 58 10.0 15.0 0.00 0.00 0.00 71 1018.6
20180925180255 79 148 7.0 11.0 0.00 0.00 0.00 69 1018.6
20180925175245 79 49 8.0 13.0 0.00 0.00 0.00 68 1018.5
20180925174236 79 83 6.0 10.0 0.00 0.00 0.00 68 1018.2
20180925173243 79 69 4.0 14.0 0.00 0.00 0.00 68 1018.2
20180925172251 80 102 7.0 18.0 0.00 0.00 0.00 67 1018.0
20180925171248 80 92 8.0 16.0 0.00 0.00 0.00 66 1017.9
20180925170246 81 99 6.0 17.0 0.00 0.00 0.00 64 1017.9
20180925165241 81 86 10.0 17.0 0.00 0.00 0.00 64 1017.8
20180925164238 81 62 8.0 18.0 0.00 0.00 0.00 63 1017.7
20180925163234 82 86 10.0 18.0 0.00 0.00 0.00 59 1017.7
20180925162237 82 79 6.0 19.0 0.00 0.00 0.00 58 1017.6
20180925161251 84 72 9.0 13.0 0.00 0.00 0.00 53 1017.5
20180925160249 83 71 8.0 14.0 0.00 0.00 0.00 53 1017.5
20180925155247 83 52 7.0 14.0 0.00 0.00 0.00 53 1017.4
20180925154242 83 85 6.0 14.0 0.00 0.00 0.00 54 1017.4
20180925153238 83 47 6.0 14.0 0.00 0.00 0.00 54 1017.4
20180925152253 84 73 6.0 13.0 0.00 0.00 0.00 54 1017.4
20180925151249 84 76 5.0 12.0 0.00 0.00 0.00 53 1017.6
20180925150246 83 92 3.0 11.0 0.00 0.00 0.00 55 1017.6
20180925145242 84 73 5.0 12.0 0.00 0.00 0.00 54 1017.6
20180925144241 84 136 5.0 11.0 0.00 0.00 0.00 52 1017.6
20180925143238 85 93 8.0 10.0 0.00 0.00 0.00 51 1017.6
20180925142242 84 145 5.0 8.0 0.00 0.00 0.00 53 1017.6
20180925141239 84 162 6.0 11.0 0.00 0.00 0.00 54 1017.7
20180925140307 83 85 3.0 12.0 0.00 0.00 0.00 54 1017.7
20180925135251 84 83 8.0 12.0 0.00 0.00 0.00 53 1017.9
20180925134247 84 95 3.0 10.0 0.00 0.00 0.00 53 1018.0
20180925133244 84 119 4.0 10.0 0.00 0.00 0.00 53 1018.0
20180925132251 84 107 6.0 11.0 0.00 0.00 0.00 53 1018.1
20180925131245 84 80 4.0 8.0 0.00 0.00 0.00 55 1018.3
20180925130240 83 88 2.0 10.0 0.00 0.00 0.00 57 1018.3
20180925125237 83 40 1.0 10.0 0.00 0.00 0.00 57 1018.6
20180925124250 82 49 3.0 11.0 0.00 0.00 0.00 58 1018.7
20180925123254 82 106 3.0 13.0 0.00 0.00 0.00 57 1018.7
20180925122302 82 61 5.0 12.0 0.00 0.00 0.00 58 1018.8
20180925121250 82 51 3.0 7.0 0.00 0.00 0.00 58 1019.0
20180925120249 82 88 5.0 8.0 0.00 0.00 0.00 58 1019.0
20180925115243 82 65 6.0 12.0 0.00 0.00 0.00 59 1019.2
20180925114239 82 95 6.0 10.0 0.00 0.00 0.00 58 1019.3
20180925113240 82 86 2.0 7.0 0.00 0.00 0.00 60 1019.3
20180925112246 82 95 1.0 14.0 0.00 0.00 0.00 62 1019.4
20180925111244 81 141 2.0 6.0 0.00 0.00 0.00 62 1019.6
20180925110242 81 86 3.0 7.0 0.00 0.00 0.00 64 1019.6
20180925105236 81 82 5.0 11.0 0.00 0.00 0.00 64 1019.6
20180925104303 81 83 7.0 11.0 0.00 0.00 0.00 64 1019.7
20180925103252 81 80 5.0 10.0 0.00 0.00 0.00 66 1019.7
20180925102242 81 85 3.0 8.0 0.00 0.00 0.00 66 1019.7
20180925101240 81 350 2.0 8.0 0.00 0.00 0.00 67 1019.7
20180925100258 80 350 3.0 7.0 0.00 0.00 0.00 68 1019.7
20180925095247 80 79 3.0 6.0 0.00 0.00 0.00 69 1019.7
20180925094240 79 38 1.0 2.0 0.00 0.00 0.00 72 1019.8
20180925093240 79 343 2.0 3.0 0.00 0.00 0.00 74 1019.8
20180925092237 79 65 3.0 6.0 0.00 0.00 0.00 74 1019.8
20180925091250 78 260 2.0 3.0 0.00 0.00 0.00 75 1019.7
20180925090247 78 272 1.0 3.0 0.00 0.00 0.00 77 1019.7
20180925085244 77 257 1.0 3.0 0.00 0.00 0.00 79 1019.7
20180925084239 77 158 2.0 5.0 0.00 0.00 0.00 80 1019.7
20180925083236 76 229 2.0 5.0 0.00 0.00 0.00 81 1019.6
20180925082244 76 236 2.0 5.0 0.00 0.00 0.00 81 1019.5
20180925081242 76 205 1.0 3.0 0.00 0.00 0.00 82 1019.3
20180925080241 75 198 0.0 3.0 0.00 0.00 0.00 82 1019.3
20180925075237 75 193 1.0 2.0 0.00 0.00 0.00 82 1019.1
20180925074254 75 233 1.0 3.0 0.00 0.00 0.00 82 1018.9
20180925073231 75 244 1.0 5.0 0.00 0.00 0.00 82 1018.9
20180925072259 74 227 1.0 3.0 0.00 0.00 0.00 82 1018.8
20180925071250 74 202 1.0 3.0 0.00 0.00 0.00 82 1018.7
20180925070246 74 199 1.0 2.0 0.00 0.00 0.00 82 1018.7
20180925065245 74 176 0.0 2.0 0.00 0.00 0.00 82 1018.6
20180925064238 74 199 0.0 2.0 0.00 0.00 0.00 82 1018.5
20180925063236 74 178 1.0 2.0 0.00 0.00 0.00 82 1018.5
20180925062246 74 174 1.0 2.0 0.00 0.00 0.00 82 1018.2
20180925061242 74 158 0.0 1.0 0.00 0.00 0.00 83 1018.0
20180925060246 74 158 1.0 2.0 0.00 0.00 0.00 83 1018.0
20180925055259 75 55 1.0 3.0 0.00 0.00 0.00 84 1017.8
20180925054248 75 31 1.0 3.0 0.00 0.00 0.00 84 1017.7
20180925053243 75 49 0.0 2.0 0.00 0.00 0.00 84 1017.7
20180925052300 75 56 0.0 2.0 0.00 0.00 0.00 84 1017.7
20180925051248 75 42 2.0 3.0 0.00 0.00 0.00 84 1017.6
20180925050245 75 37 2.0 3.0 0.00 0.00 0.00 84 1017.6
20180925045244 75 49 2.0 3.0 0.00 0.00 0.00 84 1017.5
20180925044241 75 65 1.0 3.0 0.00 0.00 0.00 84 1017.3
20180925043240 75 59 0.0 3.0 0.00 0.00 0.00 84 1017.3
20180925042249 75 51 1.0 2.0 0.00 0.00 0.00 84 1017.4
20180925041247 75 18 1.0 2.0 0.00 0.00 0.00 84 1017.3
20180925040240 75 17 0.0 2.0 0.00 0.00 0.00 83 1017.3
20180925035237 75 17 1.0 3.0 0.00 0.00 0.00 83 1017.3
20180925034259 75 37 2.0 3.0 0.00 0.00 0.00 83 1017.2
20180925033248 75 75 0.0 3.0 0.00 0.00 0.00 83 1017.2
20180925032303 75 40 0.0 4.0 0.00 0.00 0.00 82 1017.3
20180925031252 75 58 1.0 3.0 0.00 0.00 0.00 82 1017.3
20180925030249 75 85 1.0 3.0 0.00 0.00 0.00 82 1017.3
20180925025244 76 78 1.0 3.0 0.00 0.00 0.00 82 1017.3
20180925024239 76 83 1.0 3.0 0.00 0.00 0.00 81 1017.4
20180925023253 76 69 2.0 5.0 0.00 0.00 0.00 81 1017.4
20180925022249 76 95 2.0 5.0 0.00 0.00 0.00 81 1017.4
20180925021247 76 79 2.0 3.0 0.00 0.00 0.00 81 1017.5
20180925020250 76 68 2.0 4.0 0.00 0.00 0.00 80 1017.5
20180925015242 76 58 0.0 3.0 0.00 0.00 0.00 80 1017.6
20180925014242 77 40 1.0 3.0 0.00 0.00 0.00 80 1017.6
20180925013240 77 37 1.0 3.0 0.00 0.00 0.00 80 1017.6
20180925012249 77 109 1.0 3.0 0.00 0.00 0.00 80 1017.6
20180925011247 77 96 1.0 4.0 0.00 0.00 0.00 80 1017.6
20180925010248 77 89 0.0 3.0 0.00 0.00 0.00 80 1017.6
20180925005243 76 193 0.0 2.0 0.00 0.00 0.00 79 1017.6
20180925004242 76 188 0.0 2.0 0.00 0.00 0.00 79 1017.6
20180925003236 77 102 1.0 2.0 0.00 0.00 0.00 80 1017.6
20180925002236 77 102 1.0 3.0 0.00 0.00 0.00 80 1017.6
20180925001250 77 102 2.0 5.0 0.00 0.00 0.00 80 1017.6
20180925000248 77 31 0.0 5.0 0.00 0.00 0.00 79 1017.6
20180924235245 77 88 1.0 4.0 0.00 0.00 0.00 78 1017.6
20180924234241 77 42 2.0 3.0 0.00 0.00 0.00 78 1017.6
20180924233236 77 35 2.0 4.0 0.00 0.00 0.00 77 1017.6
20180924232235 78 45 1.0 4.0 0.00 0.00 0.00 76 1017.5
20180924231250 78 103 3.0 5.0 0.00 0.00 0.00 75 1017.5